Regional Weather Roundup
Issued by NWS

Home | Current Version | Previous Version | Text Only | Print | Product List | Glossary On
Versions: 1 2 3 4 5 6 7 8 9 10 11 12 13 14 15 16 17 18 19 20 21 22 23 24 25 26 27 28 29 30 31 32 33 34 35 36 37 38 39 40 41 42 43 44 45 46 47 48 49 50
000
ASUS44 KBMX 291510
RWRAL

ALABAMA REGIONAL WEATHER ROUNDUP
NATIONAL WEATHER SERVICE BIRMINGHAM AL
900 AM CST MON DEC 29 2014

NOTE: "FAIR" INDICATES FEW OR NO CLOUDS BELOW 12,000 FEET
WITH NO SIGNIFICANT WEATHER AND/OR OBSTRUCTIONS TO VISIBILITY.

THE REMARK "TC" DENOTES TEMPERATURE IN DEGREES CELSIUS.

ALZ001>011-014-016>018-020-291600-
NORTH ALABAMA

CITY           SKY/WX    TMP DP  RH WIND       PRES   REMARKS
MUSCLE SHOALS  CLOUDY    42  38  85 N3        30.20R FOG
HUNTSVILLE     CLOUDY    44  41  89 N7        30.17R
DECATUR        CLOUDY    42  40  92 N9        30.18R
HALEYVILLE     CLOUDY    40  40 100 CALM      30.20R FOG
GADSDEN        CLOUDY    50  46  87 NW5       30.15R
$$

ALZ012-013-022-023-030>036-040>044-291600-
WEST CENTRAL ALABAMA

CITY           SKY/WX    TMP DP  RH WIND       PRES   REMARKS
TUSCALOOSA     CLOUDY    50  48  93 NW5       30.17R
$$

ALZ015-024>027-033>036-040>044-291600-
CENTRAL ALABAMA

CITY           SKY/WX    TMP DP  RH WIND       PRES   REMARKS
BIRMINGHAM     DRIZZLE   49  48  97 N3        30.17R FOG
MONTGOMERY     CLOUDY    58  55  90 CALM      30.15R
SHELBY CO ARPT CLOUDY    51  50  96 VRB3      30.14R FOG
MAXWELL AFB    CLOUDY    57  55  94 NW2       30.14R
GREENVILLE     CLOUDY    57  54  89 NW6       30.14R
$$

ALZ019-021-028-029-037-038-045>048-291600-
EAST CENTRAL ALABAMA

CITY           SKY/WX    TMP DP  RH WIND       PRES   REMARKS
ANNISTON       CLOUDY    53  52  96 CALM      30.13R
ALEXANDER CITY CLOUDY    58  54  86 CALM      30.13S
AUBURN         CLOUDY    54  52  94 N7        30.16R
$$

ALZ051>064-291600-
SOUTHWEST ALABAMA

CITY           SKY/WX    TMP DP  RH WIND       PRES   REMARKS
MOBILE         CLOUDY    55  55 100 N5        30.16R FOG
BROOKLEY FIELD CLOUDY    58  56  93 NW7       30.17R
EVERGREEN      CLOUDY    57  55  93 N7        30.15R FOG
$$

ALZ049-050-065>069-291600-
SOUTHEAST ALABAMA

CITY           SKY/WX    TMP DP  RH WIND       PRES   REMARKS
DOTHAN         CLOUDY    60  58  92 E3        30.14R
OZARK          CLOUDY    61  55  82 NW3       30.13R
TROY           CLOUDY    58  55  90 NW7       30.14R
EUFAULA        LGT RAIN  60  57  89 NW5       30.12R
$$


USA.gov is the U.S. government's official web portal to all federal, state and local government web resources and services.